Time,TemperatureF,DewpointF,PressureIn,WindDirection,WindDirectionDegrees,WindSpeedMPH,WindSpeedGustMPH,Humidity,HourlyPrecipIn,Conditions,Clouds,dailyrainin,SoftwareType,DateUTC
2013-01-12 00:01:00,50.9,43.0,28.98,SSW,202,9.0,13.0,74,0.00,,,0.00,meteohub,2013-01-12 06:01:00,
2013-01-12 00:06:00,50.9,43.0,28.98,SSW,202,9.0,13.0,74,0.00,,,0.00,meteohub,2013-01-12 06:06:00,
2013-01-12 00:11:00,50.9,42.6,28.98,SSW,202,10.0,15.0,73,0.00,,,0.00,meteohub,2013-01-12 06:11:00,
2013-01-12 00:16:00,51.1,42.4,28.95,SSW,202,8.0,15.0,72,0.00,,,0.00,meteohub,2013-01-12 06:16:00,
2013-01-12 00:21:00,50.9,42.3,28.95,SW,225,13.0,17.0,72,0.00,,,0.00,meteohub,2013-01-12 06:21:00,
2013-01-12 00:26:00,50.9,42.3,28.95,SSW,202,13.0,17.0,72,0.00,,,0.00,meteohub,2013-01-12 06:26:00,
2013-01-12 00:31:00,50.9,42.3,28.98,SSW,202,6.0,17.0,72,0.00,,,0.00,meteohub,2013-01-12 06:31:00,
2013-01-12 00:36:00,50.9,41.9,28.98,SSW,202,8.0,17.0,71,0.00,,,0.00,meteohub,2013-01-12 06:36:00,
2013-01-12 00:41:00,50.9,41.9,28.98,South,180,13.0,17.0,71,0.00,,,0.00,meteohub,2013-01-12 06:41:00,
2013-01-12 00:46:00,50.9,41.5,28.95,SSW,202,8.0,17.0,70,0.00,,,0.00,meteohub,2013-01-12 06:46:00,
2013-01-12 00:51:00,50.9,41.5,28.95,South,180,4.0,17.0,70,0.00,,,0.00,meteohub,2013-01-12 06:51:00,
2013-01-12 00:56:00,50.9,41.5,28.95,SSW,202,4.0,19.0,70,0.00,,,0.00,meteohub,2013-01-12 06:56:00,
2013-01-12 01:01:00,50.9,41.5,28.98,SSW,202,7.0,19.0,70,0.00,,,0.00,meteohub,2013-01-12 07:01:00,
2013-01-12 01:06:00,50.9,41.2,28.98,SSW,202,14.0,17.0,69,0.00,,,0.00,meteohub,2013-01-12 07:06:00,
2013-01-12 01:11:00,50.9,40.8,28.98,SSW,202,6.0,17.0,68,0.00,,,0.00,meteohub,2013-01-12 07:11:00,
2013-01-12 01:16:00,50.7,40.6,28.98,SSE,158,5.0,17.0,68,0.00,,,0.00,meteohub,2013-01-12 07:16:00,
2013-01-12 01:21:00,50.7,40.6,28.98,ESE,112,6.0,14.0,68,0.00,,,0.00,meteohub,2013-01-12 07:21:00,
2013-01-12 01:26:00,50.7,40.1,28.98,SSW,202,4.0,11.0,67,0.00,,,0.00,meteohub,2013-01-12 07:26:00,
2013-01-12 01:31:00,50.7,40.1,28.98,SSW,202,10.0,13.0,67,0.00,,,0.00,meteohub,2013-01-12 07:31:00,
2013-01-12 01:36:00,50.5,40.1,28.98,SSW,202,10.0,13.0,67,0.00,,,0.00,meteohub,2013-01-12 07:36:00,
2013-01-12 01:41:00,50.7,40.1,28.98,SSW,202,6.0,12.0,67,0.00,,,0.00,meteohub,2013-01-12 07:41:00,
2013-01-12 01:46:00,50.5,40.1,28.98,SSW,202,8.0,12.0,67,0.00,,,0.00,meteohub,2013-01-12 07:46:00,
2013-01-12 01:51:00,50.5,40.1,28.98,SSW,202,10.0,12.0,67,0.00,,,0.00,meteohub,2013-01-12 07:51:00,
2013-01-12 01:56:00,50.5,40.1,28.98,SSW,202,11.0,11.0,67,0.00,,,0.00,meteohub,2013-01-12 07:56:00,
2013-01-12 02:01:00,50.5,40.1,28.98,SSW,202,8.0,13.0,67,0.00,,,0.00,meteohub,2013-01-12 08:01:00,
2013-01-12 02:06:00,50.5,39.6,28.98,South,180,6.0,13.0,66,0.00,,,0.00,meteohub,2013-01-12 08:06:00,
2013-01-12 02:11:00,50.5,39.6,28.98,SSW,202,5.0,13.0,66,0.00,,,0.00,meteohub,2013-01-12 08:11:00,
2013-01-12 02:16:00,50.5,39.6,28.98,SSW,202,4.0,13.0,66,0.00,,,0.00,meteohub,2013-01-12 08:16:00,
2013-01-12 02:21:00,50.7,39.7,28.98,SSW,202,15.0,15.0,66,0.00,,,0.00,meteohub,2013-01-12 08:21:00,
2013-01-12 02:26:00,50.7,39.7,28.98,SSW,202,6.0,16.0,66,0.00,,,0.00,meteohub,2013-01-12 08:26:00,
2013-01-12 02:31:00,50.9,39.9,28.98,WSW,248,15.0,16.0,66,0.00,,,0.00,meteohub,2013-01-12 08:31:00,
2013-01-12 02:36:00,50.9,39.6,28.98,SW,225,6.0,16.0,65,0.00,,,0.00,meteohub,2013-01-12 08:36:00,
2013-01-12 02:41:00,50.9,39.6,28.98,SW,225,13.0,15.0,65,0.00,,,0.00,meteohub,2013-01-12 08:41:00,
2013-01-12 02:46:00,50.9,39.6,28.98,SW,225,8.0,15.0,65,0.00,,,0.00,meteohub,2013-01-12 08:46:00,
2013-01-12 02:51:00,51.1,39.4,28.98,SW,225,10.0,13.0,64,0.00,,,0.00,meteohub,2013-01-12 08:51:00,
2013-01-12 02:56:00,51.1,39.4,28.98,SSW,202,6.0,14.0,64,0.00,,,0.00,meteohub,2013-01-12 08:56:00,
2013-01-12 03:01:00,51.1,39.4,28.98,SSW,202,6.0,14.0,64,0.00,,,0.00,meteohub,2013-01-12 09:01:00,
2013-01-12 03:06:00,51.1,39.4,28.98,SW,225,6.0,14.0,64,0.00,,,0.00,meteohub,2013-01-12 09:06:00,
2013-01-12 03:11:00,51.1,39.4,28.98,SSE,158,8.0,12.0,64,0.00,,,0.00,meteohub,2013-01-12 09:11:00,
2013-01-12 03:16:00,51.1,39.4,28.98,South,180,6.0,13.0,64,0.00,,,0.00,meteohub,2013-01-12 09:16:00,
2013-01-12 03:21:00,51.1,39.4,28.98,WSW,248,8.0,17.0,64,0.00,,,0.00,meteohub,2013-01-12 09:21:00,
2013-01-12 03:26:00,51.1,39.0,28.98,WSW,248,9.0,17.0,63,0.00,,,0.00,meteohub,2013-01-12 09:26:00,
2013-01-12 03:31:00,51.3,39.2,28.98,SSW,202,8.0,17.0,63,0.00,,,0.00,meteohub,2013-01-12 09:31:00,
2013-01-12 03:36:00,51.1,39.0,28.98,SSW,202,8.0,13.0,63,0.00,,,0.00,meteohub,2013-01-12 09:36:00,
2013-01-12 03:41:00,51.1,39.0,28.98,SSW,202,8.0,13.0,63,0.00,,,0.00,meteohub,2013-01-12 09:41:00,
2013-01-12 03:46:00,50.9,39.2,28.98,WSW,248,6.0,15.0,64,0.00,,,0.00,meteohub,2013-01-12 09:46:00,
2013-01-12 03:51:00,50.9,39.2,28.98,WSW,248,6.0,15.0,64,0.00,,,0.00,meteohub,2013-01-12 09:51:00,
2013-01-12 03:56:00,50.7,39.4,28.98,SSW,202,6.0,15.0,65,0.00,,,0.00,meteohub,2013-01-12 09:56:00,
2013-01-12 04:01:00,50.7,39.7,28.98,South,180,3.0,15.0,66,0.00,,,0.00,meteohub,2013-01-12 10:01:00,
2013-01-12 04:06:00,50.7,39.7,28.98,SSW,202,9.0,11.0,66,0.00,,,0.00,meteohub,2013-01-12 10:06:00,
2013-01-12 04:11:00,50.9,39.6,28.98,SSW,202,7.0,13.0,65,0.00,,,0.00,meteohub,2013-01-12 10:11:00,
2013-01-12 04:16:00,50.9,39.9,28.98,SSE,158,11.0,13.0,66,0.00,,,0.00,meteohub,2013-01-12 10:16:00,
2013-01-12 04:21:00,50.7,39.7,28.98,SSW,202,9.0,14.0,66,0.00,,,0.00,meteohub,2013-01-12 10:21:00,
2013-01-12 04:26:00,50.7,39.7,28.98,SW,225,7.0,14.0,66,0.00,,,0.00,meteohub,2013-01-12 10:26:00,
2013-01-12 04:31:00,50.7,39.7,28.98,SSW,202,6.0,14.0,66,0.00,,,0.00,meteohub,2013-01-12 10:31:00,
2013-01-12 04:36:00,50.7,39.7,28.98,SSE,158,6.0,12.0,66,0.00,,,0.00,meteohub,2013-01-12 10:36:00,
2013-01-12 04:41:00,50.5,40.1,28.98,SSW,202,6.0,12.0,67,0.00,,,0.00,meteohub,2013-01-12 10:41:00,
2013-01-12 04:46:00,50.5,40.1,28.98,SW,225,13.0,13.0,67,0.00,,,0.00,meteohub,2013-01-12 10:46:00,
2013-01-12 04:51:00,50.5,40.1,28.98,SSW,202,7.0,13.0,67,0.00,,,0.00,meteohub,2013-01-12 10:51:00,
2013-01-12 04:56:00,50.5,40.1,28.98,SSW,202,7.0,13.0,67,0.00,,,0.00,meteohub,2013-01-12 10:56:00,
2013-01-12 05:02:00,50.4,40.3,28.98,SSW,202,6.0,13.0,68,0.00,,,0.00,meteohub,2013-01-12 11:02:00,
2013-01-12 05:07:00,50.4,40.3,28.98,SW,225,6.0,11.0,68,0.00,,,0.00,meteohub,2013-01-12 11:07:00,
2013-01-12 05:12:00,50.4,40.6,28.98,SSE,158,6.0,10.0,69,0.00,,,0.00,meteohub,2013-01-12 11:12:00,
2013-01-12 05:17:00,50.4,40.6,28.98,SSW,202,6.0,10.0,69,0.00,,,0.00,meteohub,2013-01-12 11:17:00,
2013-01-12 05:22:00,50.2,40.5,28.98,South,180,4.0,10.0,69,0.00,,,0.00,meteohub,2013-01-12 11:22:00,
2013-01-12 05:27:00,50.2,40.8,28.98,WSW,248,6.0,9.0,70,0.00,,,0.00,meteohub,2013-01-12 11:27:00,
2013-01-12 05:32:00,50.2,41.2,29.01,South,180,6.0,13.0,71,0.00,,,0.00,meteohub,2013-01-12 11:32:00,
2013-01-12 05:37:00,50.4,41.0,29.01,SSW,202,6.0,13.0,70,0.00,,,0.00,meteohub,2013-01-12 11:37:00,
2013-01-12 05:42:00,50.2,40.8,29.01,WSW,248,3.0,13.0,70,0.00,,,0.00,meteohub,2013-01-12 11:42:00,
2013-01-12 05:47:00,50.2,41.2,29.01,SW,225,6.0,11.0,71,0.00,,,0.00,meteohub,2013-01-12 11:47:00,
2013-01-12 05:52:00,50.2,41.2,29.01,SSW,202,6.0,11.0,71,0.00,,,0.00,meteohub,2013-01-12 11:52:00,
2013-01-12 05:57:00,50.2,41.5,29.01,SW,225,9.0,16.0,72,0.00,,,0.00,meteohub,2013-01-12 11:57:00,
2013-01-12 06:02:00,50.0,41.4,29.01,SSW,202,3.0,16.0,72,0.00,,,0.00,meteohub,2013-01-12 12:02:00,
2013-01-12 06:07:00,50.0,41.7,29.01,SSW,202,6.0,16.0,73,0.00,,,0.00,meteohub,2013-01-12 12:07:00,
2013-01-12 06:12:00,50.0,42.1,29.01,SSW,202,4.0,9.0,74,0.00,,,0.00,meteohub,2013-01-12 12:12:00,
2013-01-12 06:17:00,49.8,41.9,29.01,South,180,4.0,9.0,74,0.00,,,0.00,meteohub,2013-01-12 12:17:00,
2013-01-12 06:22:00,50.0,42.4,29.01,SSW,202,6.0,9.0,75,0.00,,,0.00,meteohub,2013-01-12 12:22:00,
2013-01-12 06:27:00,50.0,42.4,29.01,SW,225,8.0,8.0,75,0.00,,,0.00,meteohub,2013-01-12 12:27:00,
2013-01-12 06:32:00,49.8,42.3,29.01,SSE,158,3.0,9.0,75,0.00,,,0.00,meteohub,2013-01-12 12:32:00,
2013-01-12 06:37:00,49.8,42.6,29.01,WSW,248,6.0,9.0,76,0.00,,,0.00,meteohub,2013-01-12 12:37:00,
2013-01-12 06:42:00,49.8,42.6,29.01,WSW,248,6.0,9.0,76,0.00,,,0.00,meteohub,2013-01-12 12:42:00,
2013-01-12 06:47:00,49.8,42.6,29.01,South,180,4.0,9.0,76,0.00,,,0.00,meteohub,2013-01-12 12:47:00,
2013-01-12 06:52:00,49.8,42.6,29.01,SW,225,4.0,9.0,76,0.00,,,0.00,meteohub,2013-01-12 12:52:00,
2013-01-12 06:57:00,49.8,43.0,29.01,SW,225,4.0,9.0,77,0.00,,,0.00,meteohub,2013-01-12 12:57:00,
2013-01-12 07:01:00,49.8,42.6,29.04,SSW,202,4.0,10.0,76,0.00,,,0.00,meteohub,2013-01-12 13:01:00,
2013-01-12 07:07:00,49.6,42.8,29.04,SW,225,4.0,10.0,77,0.00,,,0.00,meteohub,2013-01-12 13:07:00,
2013-01-12 07:12:00,49.6,43.2,29.04,WNW,292,4.0,10.0,78,0.00,,,0.00,meteohub,2013-01-12 13:12:00,
2013-01-12 07:17:00,49.8,43.2,29.04,SW,225,6.0,8.0,78,0.00,,,0.00,meteohub,2013-01-12 13:17:00,
2013-01-12 07:22:00,50.2,43.5,29.04,SW,225,6.0,9.0,78,0.00,,,0.00,meteohub,2013-01-12 13:22:00,
2013-01-12 07:27:00,50.4,43.2,29.04,SSW,202,6.0,9.0,76,0.00,,,0.00,meteohub,2013-01-12 13:27:00,
2013-01-12 07:32:00,50.5,43.0,29.04,SSW,202,6.0,11.0,75,0.00,,,0.00,meteohub,2013-01-12 13:32:00,
2013-01-12 07:37:00,50.7,42.8,29.04,WSW,248,5.0,11.0,74,0.00,,,0.00,meteohub,2013-01-12 13:37:00,
2013-01-12 07:42:00,50.9,42.6,29.04,SW,225,6.0,12.0,73,0.00,,,0.00,meteohub,2013-01-12 13:42:00,
2013-01-12 07:47:00,51.1,42.4,29.07,SSW,202,6.0,13.0,72,0.00,,,0.00,meteohub,2013-01-12 13:47:00,
2013-01-12 07:52:00,51.3,41.9,29.07,SSW,202,6.0,13.0,70,0.00,,,0.00,meteohub,2013-01-12 13:52:00,
2013-01-12 07:57:00,51.3,41.5,29.07,SSW,202,10.0,13.0,69,0.00,,,0.00,meteohub,2013-01-12 13:57:00,
2013-01-12 08:02:00,51.4,41.5,29.04,South,180,3.0,11.0,69,0.00,,,0.00,meteohub,2013-01-12 14:02:00,
2013-01-12 08:07:00,51.4,41.5,29.04,SSW,202,10.0,11.0,69,0.00,,,0.00,meteohub,2013-01-12 14:07:00,
2013-01-12 08:12:00,51.4,41.2,29.04,North,0,6.0,13.0,68,0.00,,,0.00,meteohub,2013-01-12 14:12:00,
2013-01-12 08:17:00,51.6,41.4,29.07,SSW,202,3.0,13.0,68,0.00,,,0.00,meteohub,2013-01-12 14:17:00,
2013-01-12 08:22:00,51.6,41.0,29.07,SSW,202,11.0,12.0,67,0.00,,,0.00,meteohub,2013-01-12 14:22:00,
2013-01-12 08:27:00,51.8,40.8,29.07,SW,225,11.0,12.0,66,0.00,,,0.00,meteohub,2013-01-12 14:27:00,
2013-01-12 08:32:00,52.0,41.0,29.07,WNW,292,3.0,12.0,66,0.00,,,0.00,meteohub,2013-01-12 14:32:00,
2013-01-12 08:37:00,52.2,40.8,29.07,SW,225,6.0,12.0,65,0.00,,,0.00,meteohub,2013-01-12 14:37:00,
2013-01-12 08:42:00,52.3,40.1,29.07,SW,225,6.0,11.0,63,0.00,,,0.00,meteohub,2013-01-12 14:42:00,
2013-01-12 08:47:00,52.2,39.9,29.07,NNW,338,6.0,11.0,63,0.00,,,0.00,meteohub,2013-01-12 14:47:00,
2013-01-12 08:52:00,52.3,40.1,29.07,WSW,248,6.0,11.0,63,0.00,,,0.00,meteohub,2013-01-12 14:52:00,
2013-01-12 08:57:00,52.5,40.3,29.07,SSW,202,8.0,11.0,63,0.00,,,0.00,meteohub,2013-01-12 14:57:00,
2013-01-12 09:02:00,52.5,39.9,29.07,WSW,248,7.0,11.0,62,0.00,,,0.00,meteohub,2013-01-12 15:02:00,
2013-01-12 09:07:00,52.7,39.7,29.07,SSW,202,5.0,11.0,61,0.00,,,0.00,meteohub,2013-01-12 15:07:00,
2013-01-12 09:12:00,53.1,39.6,29.07,West,270,7.0,11.0,60,0.00,,,0.00,meteohub,2013-01-12 15:12:00,
2013-01-12 09:16:00,53.4,39.9,29.10,SSE,158,4.0,11.0,60,0.00,,,0.00,meteohub,2013-01-12 15:16:00,
2013-01-12 09:21:00,54.1,39.2,29.10,SW,225,3.0,9.0,57,0.00,,,0.00,meteohub,2013-01-12 15:21:00,
2013-01-12 09:26:00,54.5,39.2,29.10,WSW,248,5.0,9.0,56,0.00,,,0.00,meteohub,2013-01-12 15:26:00,
2013-01-12 09:32:00,54.3,38.5,29.10,SW,225,7.0,9.0,55,0.00,,,0.00,meteohub,2013-01-12 15:32:00,
2013-01-12 09:37:00,54.1,38.8,29.10,SSW,202,6.0,11.0,56,0.00,,,0.00,meteohub,2013-01-12 15:37:00,
2013-01-12 09:42:00,54.1,38.8,29.10,SSW,202,6.0,11.0,56,0.00,,,0.00,meteohub,2013-01-12 15:42:00,
2013-01-12 09:47:00,54.3,39.0,29.10,SSW,202,4.0,11.0,56,0.00,,,0.00,meteohub,2013-01-12 15:47:00,
2013-01-12 09:52:00,54.5,39.2,29.10,SSW,202,1.0,10.0,56,0.00,,,0.00,meteohub,2013-01-12 15:52:00,
2013-01-12 09:57:00,54.5,38.7,29.10,SW,225,6.0,10.0,55,0.00,,,0.00,meteohub,2013-01-12 15:57:00,
2013-01-12 10:02:00,54.3,38.5,29.10,WNW,292,9.0,10.0,55,0.00,,,0.00,meteohub,2013-01-12 16:02:00,
2013-01-12 10:07:00,54.3,39.0,29.10,SSW,202,7.0,9.0,56,0.00,,,0.00,meteohub,2013-01-12 16:07:00,
2013-01-12 10:12:00,54.3,38.5,29.10,WSW,248,6.0,9.0,55,0.00,,,0.00,meteohub,2013-01-12 16:12:00,
2013-01-12 10:17:00,54.5,38.7,29.10,SSW,202,4.0,9.0,55,0.00,,,0.00,meteohub,2013-01-12 16:17:00,
2013-01-12 10:22:00,54.9,38.5,29.10,SSW,202,8.0,8.0,54,0.00,,,0.00,meteohub,2013-01-12 16:22:00,
2013-01-12 10:27:00,54.9,38.1,29.10,SSW,202,4.0,8.0,53,0.00,,,0.00,meteohub,2013-01-12 16:27:00,
2013-01-12 10:32:00,55.0,38.3,29.10,WNW,292,6.0,8.0,53,0.00,,,0.00,meteohub,2013-01-12 16:32:00,
2013-01-12 10:37:00,55.0,37.8,29.10,SW,225,6.0,9.0,52,0.00,,,0.00,meteohub,2013-01-12 16:37:00,
2013-01-12 10:42:00,55.2,37.9,29.10,SSW,202,7.0,9.0,52,0.00,,,0.00,meteohub,2013-01-12 16:42:00,
2013-01-12 10:47:00,55.6,38.3,29.10,WSW,248,3.0,10.0,52,0.00,,,0.00,meteohub,2013-01-12 16:47:00,
2013-01-12 10:52:00,55.6,37.8,29.10,ESE,112,8.0,10.0,51,0.00,,,0.00,meteohub,2013-01-12 16:52:00,
2013-01-12 10:57:00,55.9,37.6,29.10,WSW,248,2.0,11.0,50,0.00,,,0.00,meteohub,2013-01-12 16:57:00,
2013-01-12 11:02:00,55.9,37.0,29.10,SW,225,7.0,11.0,49,0.00,,,0.00,meteohub,2013-01-12 17:02:00,
2013-01-12 11:07:00,56.1,36.7,29.10,WSW,248,7.0,10.0,48,0.00,,,0.00,meteohub,2013-01-12 17:07:00,
2013-01-12 11:12:00,56.3,36.9,29.10,West,270,6.0,10.0,48,0.00,,,0.00,meteohub,2013-01-12 17:12:00,
2013-01-12 11:17:00,57.0,37.0,29.10,SW,225,5.0,11.0,47,0.00,,,0.00,meteohub,2013-01-12 17:17:00,
2013-01-12 11:22:00,56.8,36.3,29.10,WNW,292,6.0,11.0,46,0.00,,,0.00,meteohub,2013-01-12 17:22:00,
2013-01-12 11:27:00,58.1,35.2,29.10,NNW,338,6.0,13.0,42,0.00,,,0.00,meteohub,2013-01-12 17:27:00,
2013-01-12 11:32:00,57.7,34.9,29.07,WSW,248,8.0,13.0,42,0.00,,,0.00,meteohub,2013-01-12 17:32:00,
2013-01-12 11:37:00,57.6,34.7,29.07,WNW,292,8.0,13.0,42,0.00,,,0.00,meteohub,2013-01-12 17:37:00,
2013-01-12 11:42:00,57.2,34.9,29.07,NNW,338,4.0,13.0,43,0.00,,,0.00,meteohub,2013-01-12 17:42:00,
2013-01-12 11:47:00,57.2,34.9,29.10,SSW,202,10.0,13.0,43,0.00,,,0.00,meteohub,2013-01-12 17:47:00,
2013-01-12 11:52:00,57.7,35.4,29.10,WSW,248,6.0,13.0,43,0.00,,,0.00,meteohub,2013-01-12 17:52:00,
2013-01-12 11:57:00,57.4,35.6,29.10,WSW,248,6.0,11.0,44,0.00,,,0.00,meteohub,2013-01-12 17:57:00,
2013-01-12 12:02:00,57.0,36.0,29.10,East,90,4.0,11.0,45,0.00,,,0.00,meteohub,2013-01-12 18:02:00,
2013-01-12 12:07:00,57.2,34.3,29.10,WNW,292,3.0,11.0,42,0.00,,,0.00,meteohub,2013-01-12 18:07:00,
2013-01-12 12:12:00,57.2,34.9,29.10,SSE,158,6.0,11.0,43,0.00,,,0.00,meteohub,2013-01-12 18:12:00,
2013-01-12 12:16:00,57.6,35.8,29.10,North,0,9.0,11.0,44,0.00,,,0.00,meteohub,2013-01-12 18:16:00,
2013-01-12 12:21:00,57.0,36.0,29.10,WNW,292,7.0,11.0,45,0.00,,,0.00,meteohub,2013-01-12 18:21:00,
2013-01-12 12:26:00,56.7,35.6,29.10,WNW,292,4.0,9.0,45,0.00,,,0.00,meteohub,2013-01-12 18:26:00,
2013-01-12 12:32:00,57.0,36.0,29.10,WNW,292,4.0,9.0,45,0.00,,,0.00,meteohub,2013-01-12 18:32:00,
2013-01-12 12:37:00,57.0,36.0,29.10,WSW,248,4.0,8.0,45,0.00,,,0.00,meteohub,2013-01-12 18:37:00,
2013-01-12 12:42:00,56.3,34.7,29.10,WNW,292,6.0,8.0,44,0.00,,,0.00,meteohub,2013-01-12 18:42:00,
2013-01-12 12:47:00,55.9,34.3,29.07,NE,45,6.0,9.0,44,0.00,,,0.00,meteohub,2013-01-12 18:47:00,
2013-01-12 12:52:00,55.4,33.8,29.07,West,270,7.0,9.0,44,0.00,,,0.00,meteohub,2013-01-12 18:52:00,
2013-01-12 12:57:00,56.5,34.9,29.07,NNW,338,4.0,10.0,44,0.00,,,0.00,meteohub,2013-01-12 18:57:00,
2013-01-12 13:02:00,56.3,33.6,29.10,WNW,292,5.0,10.0,42,0.00,,,0.00,meteohub,2013-01-12 19:02:00,
2013-01-12 13:07:00,55.9,33.3,29.10,West,270,9.0,10.0,42,0.00,,,0.00,meteohub,2013-01-12 19:07:00,
2013-01-12 13:12:00,55.4,33.3,29.10,WNW,292,4.0,9.0,43,0.00,,,0.00,meteohub,2013-01-12 19:12:00,
2013-01-12 13:17:00,54.9,32.9,29.10,NNW,338,5.0,9.0,43,0.00,,,0.00,meteohub,2013-01-12 19:17:00,
2013-01-12 13:22:00,54.3,32.9,29.10,WSW,248,4.0,9.0,44,0.00,,,0.00,meteohub,2013-01-12 19:22:00,
2013-01-12 13:27:00,54.3,33.4,29.10,WSW,248,6.0,9.0,45,0.00,,,0.00,meteohub,2013-01-12 19:27:00,
2013-01-12 13:32:00,54.7,33.8,29.10,WSW,248,2.0,9.0,45,0.00,,,0.00,meteohub,2013-01-12 19:32:00,
2013-01-12 13:37:00,54.3,33.4,29.10,West,270,6.0,9.0,45,0.00,,,0.00,meteohub,2013-01-12 19:37:00,
2013-01-12 13:42:00,54.0,32.5,29.10,SSW,202,4.0,6.0,44,0.00,,,0.00,meteohub,2013-01-12 19:42:00,
2013-01-12 13:47:00,53.4,29.7,29.10,SW,225,8.0,8.0,40,0.00,,,0.00,meteohub,2013-01-12 19:47:00,
2013-01-12 13:52:00,52.7,27.9,29.10,WSW,248,8.0,8.0,38,0.00,,,0.00,meteohub,2013-01-12 19:52:00,
2013-01-12 13:57:00,52.3,27.5,29.10,WSW,248,5.0,9.0,38,0.00,,,0.00,meteohub,2013-01-12 19:57:00,
2013-01-12 14:02:00,52.2,27.3,29.10,SSW,202,4.0,9.0,38,0.00,,,0.00,meteohub,2013-01-12 20:02:00,
2013-01-12 14:07:00,51.6,27.0,29.10,SW,225,6.0,9.0,38,0.00,,,0.00,meteohub,2013-01-12 20:07:00,
2013-01-12 14:12:00,51.6,27.0,29.10,WSW,248,6.0,9.0,38,0.00,,,0.00,meteohub,2013-01-12 20:12:00,
2013-01-12 14:17:00,51.4,26.8,29.10,SW,225,3.0,9.0,38,0.00,,,0.00,meteohub,2013-01-12 20:17:00,
2013-01-12 14:22:00,51.3,26.6,29.10,SSW,202,4.0,9.0,38,0.00,,,0.00,meteohub,2013-01-12 20:22:00,
2013-01-12 14:27:00,50.7,26.1,29.10,WSW,248,3.0,6.0,38,0.00,,,0.00,meteohub,2013-01-12 20:27:00,
2013-01-12 14:32:00,50.4,25.7,29.10,WSW,248,4.0,6.0,38,0.00,,,0.00,meteohub,2013-01-12 20:32:00,
2013-01-12 14:37:00,50.2,25.5,29.10,SSW,202,5.0,6.0,38,0.00,,,0.00,meteohub,2013-01-12 20:37:00,
2013-01-12 14:42:00,50.2,26.2,29.10,WSW,248,3.0,6.0,39,0.00,,,0.00,meteohub,2013-01-12 20:42:00,
2013-01-12 14:47:00,50.0,26.1,29.10,WSW,248,4.0,6.0,39,0.00,,,0.00,meteohub,2013-01-12 20:47:00,
2013-01-12 14:52:00,49.8,25.9,29.10,WSW,248,3.0,6.0,39,0.00,,,0.00,meteohub,2013-01-12 20:52:00,
2013-01-12 14:57:00,49.5,25.5,29.10,WSW,248,3.0,6.0,39,0.00,,,0.00,meteohub,2013-01-12 20:57:00,
2013-01-12 15:02:00,49.3,24.8,29.13,SSW,202,6.0,6.0,38,0.00,,,0.00,meteohub,2013-01-12 21:02:00,
2013-01-12 15:07:00,48.9,24.4,29.13,SSW,202,8.0,8.0,38,0.00,,,0.00,meteohub,2013-01-12 21:07:00,
2013-01-12 15:12:00,48.7,23.7,29.13,SSW,202,3.0,8.0,37,0.00,,,0.00,meteohub,2013-01-12 21:12:00,
2013-01-12 15:17:00,48.7,23.7,29.13,WNW,292,6.0,8.0,37,0.00,,,0.00,meteohub,2013-01-12 21:17:00,
2013-01-12 15:22:00,48.4,22.1,29.13,West,270,7.0,8.0,35,0.00,,,0.00,meteohub,2013-01-12 21:22:00,
2013-01-12 15:27:00,48.2,21.9,29.13,SW,225,4.0,7.0,35,0.00,,,0.00,meteohub,2013-01-12 21:27:00,
2013-01-12 15:32:00,48.0,22.5,29.13,WNW,292,3.0,7.0,36,0.00,,,0.00,meteohub,2013-01-12 21:32:00,
2013-01-12 15:37:00,47.7,19.9,29.13,West,270,3.0,7.0,33,0.00,,,0.00,meteohub,2013-01-12 21:37:00,
2013-01-12 15:42:00,47.3,20.5,29.13,WNW,292,2.0,7.0,34,0.00,,,0.00,meteohub,2013-01-12 21:42:00,
2013-01-12 15:47:00,47.3,21.7,29.13,WNW,292,6.0,7.0,36,0.00,,,0.00,meteohub,2013-01-12 21:47:00,
2013-01-12 15:52:00,46.9,22.1,29.13,West,270,6.0,7.0,37,0.00,,,0.00,meteohub,2013-01-12 21:52:00,
2013-01-12 15:57:00,46.8,22.5,29.13,West,270,3.0,10.0,38,0.00,,,0.00,meteohub,2013-01-12 21:57:00,
2013-01-12 16:02:00,46.6,22.5,29.13,NNW,338,3.0,10.0,38,0.00,,,0.00,meteohub,2013-01-12 22:02:00,
2013-01-12 16:07:00,46.2,22.6,29.13,NNW,338,3.0,8.0,39,0.00,,,0.00,meteohub,2013-01-12 22:07:00,
2013-01-12 16:12:00,46.0,23.2,29.13,NNW,338,6.0,6.0,40,0.00,,,0.00,meteohub,2013-01-12 22:12:00,
2013-01-12 16:17:00,45.9,23.5,29.10,WNW,292,4.0,6.0,41,0.00,,,0.00,meteohub,2013-01-12 22:17:00,
2013-01-12 16:22:00,45.7,23.4,29.10,WNW,292,4.0,6.0,41,0.00,,,0.00,meteohub,2013-01-12 22:22:00,
2013-01-12 16:27:00,45.3,23.0,29.10,NNW,338,4.0,6.0,41,0.00,,,0.00,meteohub,2013-01-12 22:27:00,
2013-01-12 16:32:00,45.1,22.8,29.10,WNW,292,3.0,6.0,41,0.00,,,0.00,meteohub,2013-01-12 22:32:00,
2013-01-12 16:37:00,45.0,23.4,29.10,WNW,292,6.0,6.0,42,0.00,,,0.00,meteohub,2013-01-12 22:37:00,
2013-01-12 16:42:00,44.8,23.7,29.10,NW,315,6.0,9.0,43,0.00,,,0.00,meteohub,2013-01-12 22:42:00,
2013-01-12 16:47:00,44.4,24.4,29.13,WNW,292,7.0,9.0,45,0.00,,,0.00,meteohub,2013-01-12 22:47:00,
2013-01-12 16:52:00,44.2,24.8,29.13,NNW,338,8.0,9.0,46,0.00,,,0.00,meteohub,2013-01-12 22:52:00,
2013-01-12 16:57:00,44.1,25.7,29.13,NNW,338,6.0,10.0,48,0.00,,,0.00,meteohub,2013-01-12 22:57:00,
2013-01-12 17:02:00,43.9,26.1,29.13,WNW,292,5.0,10.0,49,0.00,,,0.00,meteohub,2013-01-12 23:02:00,
2013-01-12 17:07:00,43.7,25.3,29.13,WNW,292,6.0,10.0,48,0.00,,,0.00,meteohub,2013-01-12 23:07:00,
2013-01-12 17:12:00,43.7,24.3,29.13,WNW,292,6.0,9.0,46,0.00,,,0.00,meteohub,2013-01-12 23:12:00,
2013-01-12 17:17:00,43.5,23.7,29.13,NW,315,4.0,9.0,45,0.00,,,0.00,meteohub,2013-01-12 23:17:00,
2013-01-12 17:22:00,43.5,24.6,29.13,WNW,292,5.0,9.0,47,0.00,,,0.00,meteohub,2013-01-12 23:22:00,
2013-01-12 17:27:00,43.3,25.0,29.13,NNW,338,6.0,9.0,48,0.00,,,0.00,meteohub,2013-01-12 23:27:00,
2013-01-12 17:32:00,43.3,25.5,29.13,NNW,338,5.0,9.0,49,0.00,,,0.00,meteohub,2013-01-12 23:32:00,
2013-01-12 17:37:00,43.2,25.3,29.13,NNW,338,6.0,9.0,49,0.00,,,0.00,meteohub,2013-01-12 23:37:00,
2013-01-12 17:42:00,43.0,25.2,29.13,WNW,292,8.0,9.0,49,0.00,,,0.00,meteohub,2013-01-12 23:42:00,
2013-01-12 17:47:00,43.0,25.2,29.13,WNW,292,3.0,9.0,49,0.00,,,0.00,meteohub,2013-01-12 23:47:00,
2013-01-12 17:52:00,42.8,25.5,29.13,WNW,292,5.0,9.0,50,0.00,,,0.00,meteohub,2013-01-12 23:52:00,
2013-01-12 17:57:00,42.8,25.5,29.13,NNW,338,3.0,8.0,50,0.00,,,0.00,meteohub,2013-01-12 23:57:00,
2013-01-12 18:02:00,42.8,25.9,29.10,North,0,5.0,8.0,51,0.00,,,0.00,meteohub,2013-01-13 00:02:00,
2013-01-12 18:07:00,42.8,25.9,29.10,NNW,338,6.0,7.0,51,0.00,,,0.00,meteohub,2013-01-13 00:07:00,
2013-01-12 18:12:00,42.6,24.8,29.10,NNW,338,6.0,9.0,49,0.00,,,0.00,meteohub,2013-01-13 00:12:00,
2013-01-12 18:17:00,42.4,23.2,29.10,ENE,68,8.0,11.0,46,0.00,,,0.00,meteohub,2013-01-13 00:17:00,
2013-01-12 18:22:00,42.1,20.7,29.10,WNW,292,7.0,11.0,42,0.00,,,0.00,meteohub,2013-01-13 00:22:00,
2013-01-12 18:27:00,41.5,20.1,29.10,NNW,338,10.0,10.0,42,0.00,,,0.00,meteohub,2013-01-13 00:27:00,
2013-01-12 18:32:00,41.2,20.5,29.10,NNE,22,4.0,11.0,43,0.00,,,0.00,meteohub,2013-01-13 00:32:00,
2013-01-12 18:37:00,41.0,20.8,29.10,NW,315,7.0,11.0,44,0.00,,,0.00,meteohub,2013-01-13 00:37:00,
2013-01-12 18:42:00,40.8,20.7,29.10,NNW,338,6.0,11.0,44,0.00,,,0.00,meteohub,2013-01-13 00:42:00,
2013-01-12 18:47:00,40.6,21.6,29.10,NNW,338,6.0,9.0,46,0.00,,,0.00,meteohub,2013-01-13 00:47:00,
2013-01-12 18:52:00,40.6,22.1,29.10,NNW,338,4.0,9.0,47,0.00,,,0.00,meteohub,2013-01-13 00:52:00,
2013-01-12 18:57:00,40.5,22.3,29.10,NNW,338,2.0,9.0,48,0.00,,,0.00,meteohub,2013-01-13 00:57:00,
2013-01-12 19:02:00,40.3,23.2,29.10,NNW,338,3.0,8.0,50,0.00,,,0.00,meteohub,2013-01-13 01:02:00,
2013-01-12 19:07:00,39.9,23.4,29.10,North,0,3.0,6.0,51,0.00,,,0.00,meteohub,2013-01-13 01:07:00,
2013-01-12 19:12:00,39.7,24.4,29.10,NNW,338,5.0,6.0,54,0.00,,,0.00,meteohub,2013-01-13 01:12:00,
2013-01-12 19:17:00,39.4,24.6,29.10,North,0,2.0,6.0,55,0.00,,,0.00,meteohub,2013-01-13 01:17:00,
2013-01-12 19:22:00,39.2,25.3,29.10,NNW,338,3.0,6.0,57,0.00,,,0.00,meteohub,2013-01-13 01:22:00,
2013-01-12 19:27:00,39.0,25.9,29.07,NNE,22,2.0,6.0,59,0.00,,,0.00,meteohub,2013-01-13 01:27:00,
2013-01-12 19:32:00,38.8,25.7,29.07,NNW,338,4.0,8.0,59,0.00,,,0.00,meteohub,2013-01-13 01:32:00,
2013-01-12 19:37:00,38.8,25.7,29.07,WNW,292,4.0,8.0,59,0.00,,,0.00,meteohub,2013-01-13 01:37:00,
2013-01-12 19:42:00,38.7,24.8,29.07,North,0,4.0,8.0,57,0.00,,,0.00,meteohub,2013-01-13 01:42:00,
2013-01-12 19:47:00,38.5,24.6,29.07,NNW,338,6.0,8.0,57,0.00,,,0.00,meteohub,2013-01-13 01:47:00,
2013-01-12 19:52:00,38.1,24.6,29.07,NNW,338,6.0,8.0,58,0.00,,,0.00,meteohub,2013-01-13 01:52:00,
2013-01-12 19:57:00,37.9,25.0,29.07,NNW,338,4.0,8.0,59,0.00,,,0.00,meteohub,2013-01-13 01:57:00,
2013-01-12 20:02:00,37.6,25.3,29.07,WNW,292,4.0,8.0,61,0.00,,,0.00,meteohub,2013-01-13 02:02:00,
2013-01-12 20:08:00,37.2,26.2,29.07,NNW,338,4.0,8.0,64,0.00,,,0.00,meteohub,2013-01-13 02:08:00,
2013-01-12 20:13:00,37.0,27.1,29.07,NNE,22,2.0,9.0,67,0.00,,,0.00,meteohub,2013-01-13 02:13:00,
2013-01-12 20:18:00,36.9,27.7,29.07,North,0,3.0,9.0,69,0.00,,,0.00,meteohub,2013-01-13 02:18:00,
2013-01-12 20:23:00,36.7,27.9,29.07,NNE,22,6.0,9.0,70,0.00,,,0.00,meteohub,2013-01-13 02:23:00,
2013-01-12 20:28:00,36.7,28.2,29.04,NNW,338,4.0,7.0,71,0.00,,,0.00,meteohub,2013-01-13 02:28:00,
2013-01-12 20:33:00,36.5,27.7,29.04,North,0,6.0,6.0,70,0.00,,,0.00,meteohub,2013-01-13 02:33:00,
2013-01-12 20:38:00,36.3,27.9,29.04,North,0,4.0,9.0,71,0.00,,,0.00,meteohub,2013-01-13 02:38:00,
2013-01-12 20:43:00,36.3,28.2,29.04,NNW,338,3.0,9.0,72,0.00,,,0.00,meteohub,2013-01-13 02:43:00,
2013-01-12 20:48:00,36.3,28.9,29.04,NNW,338,6.0,11.0,74,0.00,,,0.00,meteohub,2013-01-13 02:48:00,
2013-01-12 20:53:00,36.3,29.5,29.04,NNE,22,7.0,11.0,76,0.00,,,0.00,meteohub,2013-01-13 02:53:00,
2013-01-12 20:58:00,36.3,30.2,29.04,NNW,338,9.0,12.0,78,0.00,,,0.00,meteohub,2013-01-13 02:58:00,
2013-01-12 21:03:00,36.3,30.4,29.04,NNW,338,9.0,12.0,79,0.00,,,0.00,meteohub,2013-01-13 03:03:00,
2013-01-12 21:08:00,36.3,31.1,29.04,NNW,338,7.0,12.0,81,0.00,,,0.00,meteohub,2013-01-13 03:08:00,
2013-01-12 21:13:00,36.3,31.3,29.07,North,0,6.0,11.0,82,0.00,,,0.00,meteohub,2013-01-13 03:13:00,
2013-01-12 21:18:00,36.3,31.3,29.07,WNW,292,5.0,11.0,82,0.00,,,0.00,meteohub,2013-01-13 03:18:00,
2013-01-12 21:23:00,36.1,31.3,29.07,NNW,338,8.0,11.0,82,0.00,,,0.00,meteohub,2013-01-13 03:23:00,
2013-01-12 21:28:00,36.1,31.5,29.07,NNW,338,6.0,11.0,83,0.00,,,0.00,meteohub,2013-01-13 03:28:00,
2013-01-12 21:33:00,36.1,31.5,29.07,NNW,338,11.0,11.0,83,0.00,,,0.00,meteohub,2013-01-13 03:33:00,
2013-01-12 21:38:00,36.0,31.1,29.07,North,0,11.0,13.0,82,0.00,,,0.00,meteohub,2013-01-13 03:38:00,
2013-01-12 21:43:00,35.8,30.9,29.07,North,0,8.0,14.0,82,0.00,,,0.00,meteohub,2013-01-13 03:43:00,
2013-01-12 21:48:00,35.6,29.8,29.07,NNW,338,10.0,14.0,79,0.00,,,0.00,meteohub,2013-01-13 03:48:00,
2013-01-12 21:53:00,35.2,29.7,29.07,North,0,6.0,13.0,80,0.00,,,0.00,meteohub,2013-01-13 03:53:00,
2013-01-12 21:58:00,35.1,29.5,29.07,NNW,338,6.0,13.0,80,0.00,,,0.00,meteohub,2013-01-13 03:58:00,
2013-01-12 22:03:00,34.9,29.3,29.07,North,0,3.0,13.0,80,0.00,,,0.00,meteohub,2013-01-13 04:03:00,
2013-01-12 22:08:00,34.5,29.7,29.07,NNW,338,6.0,13.0,82,0.00,,,0.00,meteohub,2013-01-13 04:08:00,
2013-01-12 22:13:00,34.5,29.8,29.04,NNW,338,7.0,13.0,83,0.00,,,0.00,meteohub,2013-01-13 04:13:00,
2013-01-12 22:18:00,34.3,30.4,29.04,North,0,3.0,13.0,85,0.00,,,0.00,meteohub,2013-01-13 04:18:00,
2013-01-12 22:23:00,34.3,30.4,29.04,WNW,292,4.0,13.0,85,0.00,,,0.00,meteohub,2013-01-13 04:23:00,
2013-01-12 22:28:00,34.3,30.6,29.04,NNW,338,12.0,12.0,86,0.00,,,0.00,meteohub,2013-01-13 04:28:00,
2013-01-12 22:33:00,34.3,30.6,29.04,NNE,22,6.0,13.0,86,0.00,,,0.00,meteohub,2013-01-13 04:33:00,
2013-01-12 22:38:00,34.2,30.4,29.04,WNW,292,3.0,13.0,86,0.00,,,0.00,meteohub,2013-01-13 04:38:00,
2013-01-12 22:44:00,34.2,30.7,29.01,NNW,338,9.0,13.0,87,0.00,,,0.00,meteohub,2013-01-13 04:44:00,
2013-01-12 22:49:00,34.2,30.7,29.01,NNW,338,8.0,15.0,87,0.00,,,0.00,meteohub,2013-01-13 04:49:00,
2013-01-12 22:54:00,34.3,30.9,29.01,North,0,6.0,15.0,87,0.00,,,0.00,meteohub,2013-01-13 04:54:00,
2013-01-12 22:59:00,34.2,30.4,29.01,NNW,338,10.0,15.0,86,0.00,,,0.00,meteohub,2013-01-13 04:59:00,
2013-01-12 23:00:00,34.2,30.4,29.01,NNW,338,13.0,15.0,86,0.00,,,0.00,meteohub,2013-01-13 05:00:00,
2013-01-12 23:01:00,34.2,30.4,29.01,NNE,22,13.0,15.0,86,0.00,,,0.00,meteohub,2013-01-13 05:01:00,
2013-01-12 23:06:00,34.2,30.2,29.01,North,0,8.0,15.0,85,0.00,,,0.00,meteohub,2013-01-13 05:06:00,
2013-01-12 23:11:00,34.2,30.2,29.01,NNW,338,5.0,15.0,85,0.00,,,0.00,meteohub,2013-01-13 05:11:00,
2013-01-12 23:16:00,34.2,30.2,29.01,NNW,338,6.0,13.0,85,0.00,,,0.00,meteohub,2013-01-13 05:16:00,
2013-01-12 23:21:00,34.3,30.4,29.01,North,0,10.0,12.0,85,0.00,,,0.00,meteohub,2013-01-13 05:21:00,
2013-01-12 23:26:00,34.3,30.4,29.01,NNW,338,10.0,17.0,85,0.00,,,0.00,meteohub,2013-01-13 05:26:00,
2013-01-12 23:31:00,34.3,30.4,29.01,WNW,292,11.0,17.0,85,0.00,,,0.00,meteohub,2013-01-13 05:31:00,
2013-01-12 23:36:00,34.5,30.6,29.01,North,0,6.0,17.0,85,0.00,,,0.00,meteohub,2013-01-13 05:36:00,
2013-01-12 23:41:00,34.5,30.6,29.01,NNW,338,8.0,12.0,85,0.00,,,0.00,meteohub,2013-01-13 05:41:00,
2013-01-12 23:46:00,34.5,30.2,29.04,NNW,338,5.0,11.0,84,0.00,,,0.00,meteohub,2013-01-13 05:46:00,
2013-01-12 23:51:00,34.5,30.2,29.04,North,0,5.0,11.0,84,0.00,,,0.00,meteohub,2013-01-13 05:51:00,
2013-01-12 23:56:00,34.5,30.6,29.04,North,0,4.0,8.0,85,0.00,,,0.00,meteohub,2013-01-13 05:56:00,